[[{"header":{"parameterUnit":"m.s-1","parameterCategory":2,"la1":30.2991,"la2":30.254,"lo1":-89.0895,"lo2":-89.0444,"dy":0.0017,"dx":0.0017,"nx":28,"ny":28,"refTime":"2023-08-03T09:00:00:Z","depth":"0","parameterNumber":2,"parameterNumberName":"U-component_of_CURRENTS"},"data":[0,0,0,0,0,0,0,0,0,0,0,0,0,0,0,0,0,0,0,0,0,0,0,0,0,0,0,0,0,0,0,0,0,0,0,0,0,0,0,0,0,0,0,0,0,0,0,0,0,0,0,0,0,0,0,0,0,0,-0.3174,-0.3173,0,-0.3136,-0.3135,-0.3134,-0.3051,-0.3049,-0.3048,-0.3046,-0.2993,-0.2993,-0.2993,0,0,0,0,0,0,0,0,0,0,0,0,0,-0.3189,-0.3189,-0.3174,-0.3173,-0.3173,-0.3136,-0.3135,-0.3134,-0.3051,-0.3049,-0.3048,-0.3046,-0.2993,-0.2993,-0.2993,0,0,0,0,0,0,0,0,0,0,0,0,0,-0.3169,-0.3189,-0.3174,-0.3128,-0.3124,-0.3136,-0.3135,-0.3134,-0.3052,-0.3049,-0.3047,-0.3045,-0.2993,-0.2993,-0.2993,-0.3041,0,0,-0.2993,-0.2994,0,0,0,0,0,0,0,0,-0.317,-0.3168,-0.3135,-0.3131,-0.3127,-0.3097,-0.3121,-0.3103,-0.3052,-0.3078,-0.3046,-0.3044,-0.3029,-0.3026,-0.3022,-0.3038,-0.3036,-0.2994,-0.2994,-0.2994,-0.2994,0,0,0,0,0,0,0,-0.3172,-0.3169,-0.3157,-0.3135,-0.313,-0.3115,-0.3109,-0.3117,-0.3066,-0.3075,-0.3069,-0.3068,-0.3026,-0.3023,-0.302,-0.3035,-0.2994,-0.2994,-0.2994,-0.2994,-0.3042,-0.3043,0,0,0,0,0,0,-0.3181,-0.3171,-0.3158,-0.3156,-0.3145,-0.3117,-0.311,-0.3108,-0.3066,-0.3057,-0.307,-0.3065,-0.3024,-0.302,-0.3018,-0.3038,-0.2994,-0.2994,-0.2994,-0.3041,-0.3042,-0.3043,0,0,0,0,0,0,-0.3182,-0.3181,-0.316,-0.3164,-0.316,-0.3119,-0.3117,-0.3108,-0.3093,-0.3062,-0.3053,-0.3062,-0.3022,-0.3018,-0.3028,-0.3036,-0.2994,-0.2994,-0.3039,-0.3041,-0.3043,-0.3099,0,0,0,0,0,0,-0.3182,-0.3181,-0.318,-0.3165,-0.316,-0.3172,-0.3119,-0.3109,-0.3097,-0.3089,-0.3054,-0.3046,-0.3019,-0.3028,-0.3028,-0.3035,-0.2994,-0.3038,-0.304,-0.3042,-0.3096,-0.3102,-0.3108,0,0,0,0,0,-0.3183,-0.3189,-0.318,-0.3179,-0.3161,-0.3174,-0.3171,-0.3132,-0.3099,-0.3106,-0.3081,-0.3047,-0.3042,-0.303,-0.3029,-0.3037,-0.3036,-0.3039,-0.3042,-0.3093,-0.3101,-0.3108,0,0,0,0,0,0,-0.3181,-0.3182,-0.3171,-0.3172,-0.3178,-0.316,-0.3157,-0.314,-0.3126,-0.3111,-0.3074,-0.3068,-0.3075,-0.306,-0.3047,-0.3058,-0.303,-0.3033,-0.3068,-0.3076,-0.3083,-0.3058,-0.2994,0,0,0,0,0,-0.3188,-0.3196,-0.3197,-0.3197,-0.3202,-0.3183,-0.318,-0.3164,-0.3152,-0.3141,-0.3122,-0.31,-0.3092,-0.3086,-0.308,-0.3099,-0.3045,-0.3101,-0.3107,-0.3113,-0.3093,-0.3017,-0.3013,-0.3053,-0.3053,-0.3053,0,0,-0.3184,-0.3187,-0.3188,-0.3199,-0.3192,-0.321,-0.3174,-0.3179,-0.3183,-0.3142,-0.3141,-0.3128,-0.3104,-0.3114,-0.3115,-0.3098,-0.3082,-0.3116,-0.3121,-0.3098,-0.3019,-0.3014,-0.3011,-0.3055,-0.3054,-0.3054,0,0,-0.3198,-0.3188,-0.3209,-0.3221,-0.323,-0.3226,-0.3232,-0.3229,-0.3214,-0.3234,-0.3193,-0.3188,-0.3188,-0.3163,-0.3151,-0.3196,-0.3121,-0.3194,-0.3203,-0.313,-0.3125,-0.312,-0.3077,-0.3067,-0.3194,-0.3194,-0.3194,0,-0.319,-0.3203,-0.3216,-0.3243,-0.3234,-0.3236,-0.3245,-0.3256,-0.3256,-0.3235,-0.324,-0.3205,-0.3206,-0.3178,-0.3199,-0.3207,-0.3154,-0.3175,-0.3135,-0.3128,-0.3122,-0.3078,-0.3067,-0.3197,-0.3197,-0.3196,-0.3196,0,-0.3232,-0.3229,-0.324,-0.3268,-0.3279,-0.3281,-0.33,-0.3305,-0.3293,-0.3285,-0.3264,-0.3265,-0.3226,-0.3244,-0.3241,-0.3198,-0.3173,-0.3153,-0.3108,-0.312,-0.3075,-0.3062,-0.3201,-0.32,-0.3199,-0.3199,0,0,-0.3213,-0.3256,-0.3254,-0.3241,-0.3274,-0.3275,-0.3301,-0.3292,-0.3272,-0.3293,-0.3248,-0.327,-0.3245,-0.323,-0.322,-0.3181,-0.3131,-0.3152,-0.3147,-0.3097,-0.2972,-0.2888,-0.2866,-0.3085,-0.3083,-0.3081,-0.2969,0,-0.3215,-0.3241,-0.3273,-0.3268,-0.3256,-0.3269,-0.3286,-0.3289,-0.3283,-0.3261,-0.3246,-0.3219,-0.3247,-0.3222,-0.3191,-0.3135,-0.3093,-0.3164,-0.2977,-0.2972,-0.2883,-0.2846,-0.2746,-0.263,-0.2956,-0.2954,-0.2952,0,-0.3224,-0.3225,-0.3219,-0.3209,-0.3209,-0.3223,-0.3191,-0.3213,-0.3206,-0.32,-0.3171,-0.3159,-0.3122,-0.3142,-0.3037,-0.307,-0.3025,-0.2991,-0.2984,-0.2865,-0.286,-0.2664,-0.2593,-0.2332,-0.2931,-0.2933,-0.2934,0,-0.3138,-0.317,-0.3141,-0.3142,-0.3163,-0.3148,-0.3161,-0.3169,-0.3158,-0.314,-0.3109,-0.3077,-0.3032,-0.2974,-0.2935,-0.2963,-0.2806,-0.2831,-0.2714,-0.2709,-0.2565,-0.255,-0.22,-0.2735,-0.2736,-0.2736,-0.2736,0,-0.3069,-0.3037,-0.3096,-0.3063,-0.3039,-0.3081,-0.3049,-0.3066,-0.3064,-0.3027,-0.3053,-0.2999,-0.2979,-0.2905,-0.2884,-0.2744,-0.2754,-0.2687,-0.2653,-0.2588,-0.2577,-0.2298,-0.229,-0.2732,-0.2733,-0.2734,-0.2734,0,-0.2921,-0.2969,-0.294,-0.2971,-0.2984,-0.2958,-0.2986,-0.2971,-0.2978,-0.2922,-0.2907,-0.2897,-0.2804,-0.278,-0.2682,-0.2644,-0.2462,-0.2503,-0.2447,-0.2407,-0.2056,-0.2061,-0.1946,-0.1915,-0.2341,-0.2338,-0.2335,0,-0.2825,-0.2798,-0.2859,-0.2872,-0.2873,-0.2867,-0.2877,-0.2911,-0.2895,-0.2848,-0.2805,-0.2724,-0.266,-0.2502,-0.2429,-0.2336,-0.2312,-0.2176,-0.2213,-0.1976,-0.1958,-0.2112,-0.2108,-0.2068,-0.2064,-0.206,-0.2057,0,-0.2644,-0.2695,-0.2708,-0.2735,-0.275,-0.2753,-0.276,-0.2732,-0.2751,-0.2709,-0.2626,-0.2571,-0.2435,-0.2266,-0.215,-0.2115,-0.2063,-0.2094,-0.1836,-0.1689,-0.1847,-0.1819,-0.2233,-0.2024,-0.2027,-0.2029,-0.2031,-0.2033,-0.2541,-0.2532,-0.2597,-0.2606,-0.2633,-0.2615,-0.2555,-0.2578,-0.2526,-0.239,-0.2435,-0.2204,-0.2016,-0.1844,-0.18,-0.1512,-0.1808,-0.1435,-0.146,-0.1635,-0.1592,-0.1943,-0.1702,-0.1703,-0.1704,-0.1705,-0.1706,0,-0.2383,-0.2429,-0.2462,-0.2478,-0.2445,-0.2496,-0.2458,-0.2362,-0.2259,-0.2114,-0.2022,-0.1574,-0.1359,-0.1157,-0.0864,-0.0785,-0.0991,-0.0798,-0.0923,-0.0951,-0.1169,-0.1126,-0.0761,-0.0761,-0.0762,-0.0762,-0.0762,-0.0763,-0.2319,-0.2317,-0.235,-0.2286,-0.2281,-0.2138,-0.2076,-0.1966,-0.1806,-0.1428,-0.1076,-0.0935,-0.0558,-0.0153,0.0105,-0.0037,-0.0126,-0.0353,-0.0368,-0.0369,-0.0429,-0.0486,-0.0427,0.0078,0.0079,-0.0159,-0.0159,-0.0159]},{"header":{"parameterUnit":"m.s-1","parameterCategory":2,"la1":30.2991,"la2":30.254,"lo1":-89.0895,"lo2":-89.0444,"dy":0.0017,"dx":0.0017,"nx":28,"ny":28,"refTime":"2023-08-03T09:00:00:Z","depth":"0","parameterNumber":3,"parameterNumberName":"V-component_of_CURRENTS"},"data":[0,0,0,0,0,0,0,0,0,0,0,0,0,0,0,0,0,0,0,0,0,0,0,0,0,0,0,0,0,0,0,0,0,0,0,0,0,0,0,0,0,0,0,0,0,0,0,0,0,0,0,0,0,0,0,0,0,0,-0.0677,-0.0674,0,-0.0499,-0.0497,-0.0496,-0.0436,-0.0437,-0.0437,-0.0438,-0.0281,-0.0276,-0.0272,0,0,0,0,0,0,0,0,0,0,0,0,0,-0.0968,-0.0963,-0.0677,-0.0674,-0.0672,-0.0499,-0.0497,-0.0495,-0.0436,-0.0437,-0.0437,-0.0438,-0.0282,-0.0277,-0.0271,0,0,0,0,0,0,0,0,0,0,0,0,0,-0.0824,-0.0961,-0.0677,-0.0619,-0.0612,-0.05,-0.0497,-0.0495,-0.0436,-0.0437,-0.0438,-0.0438,-0.0284,-0.0278,-0.0271,-0.0216,0,0,-0.025,-0.0247,0,0,0,0,0,0,0,0,-0.0832,-0.0814,-0.063,-0.0623,-0.0614,-0.0487,-0.0542,-0.0401,-0.0436,-0.0507,-0.0438,-0.0438,-0.0349,-0.0337,-0.0307,-0.0208,-0.0201,-0.0249,-0.0245,-0.0242,-0.024,0,0,0,0,0,0,0,-0.0842,-0.0821,-0.061,-0.0627,-0.0618,-0.0602,-0.0583,-0.0515,-0.043,-0.0501,-0.0495,-0.0469,-0.0346,-0.0314,-0.0303,-0.0199,-0.0249,-0.0243,-0.0239,-0.0236,-0.0031,-0.003,0,0,0,0,0,0,-0.0855,-0.083,-0.0616,-0.0604,-0.0723,-0.0596,-0.0575,-0.053,-0.043,-0.0414,-0.0469,-0.0467,-0.0325,-0.0311,-0.0297,-0.0236,-0.0242,-0.0236,-0.0232,-0.0033,-0.0031,-0.003,0,0,0,0,0,0,-0.0862,-0.0837,-0.0623,-0.0712,-0.0683,-0.059,-0.0541,-0.0527,-0.0488,-0.0405,-0.039,-0.0445,-0.0325,-0.0307,-0.0241,-0.0229,-0.0233,-0.0226,-0.0034,-0.0032,-0.003,-0.0108,0,0,0,0,0,0,-0.0871,-0.084,-0.0818,-0.0712,-0.0678,-0.0547,-0.0539,-0.0522,-0.047,-0.0466,-0.0379,-0.0365,-0.0324,-0.0252,-0.0235,-0.022,-0.0221,-0.0036,-0.0033,-0.0031,-0.0107,-0.0108,-0.011,0,0,0,0,0,-0.0881,-0.0827,-0.0817,-0.0791,-0.0648,-0.0545,-0.0527,-0.0467,-0.0468,-0.0439,-0.0397,-0.0368,-0.0223,-0.0246,-0.0225,-0.0209,-0.0037,-0.0034,-0.0031,-0.0106,-0.0108,-0.011,0,0,0,0,0,0,-0.0941,-0.0813,-0.08,-0.0712,-0.0639,-0.0534,-0.049,-0.0464,-0.0406,-0.0406,-0.0351,-0.0333,-0.0277,-0.0221,-0.0247,-0.0139,-0.0124,-0.0117,-0.0187,-0.0189,-0.019,-0.0198,-0.0215,0,0,0,0,0,-0.0945,-0.0872,-0.077,-0.0705,-0.0663,-0.0585,-0.0539,-0.0501,-0.0432,-0.0407,-0.0356,-0.0296,-0.0246,-0.0204,-0.0149,-0.008,-0.0082,-0.0052,-0.0054,-0.0056,-0.0046,-0.0043,-0.0045,-0.002,-0.002,-0.002,0,0,-0.0955,-0.0873,-0.0836,-0.0714,-0.065,-0.0589,-0.0558,-0.0478,-0.0448,-0.0398,-0.0344,-0.0304,-0.0232,-0.0172,-0.0138,-0.0124,-0.0073,-0.0052,-0.0055,-0.0043,-0.0041,-0.0044,-0.0046,-0.0018,-0.0018,-0.0018,0,0,-0.0919,-0.086,-0.0785,-0.0726,-0.0624,-0.0582,-0.0563,-0.0465,-0.0439,-0.0381,-0.0352,-0.0302,-0.0209,-0.0162,-0.0126,-0.0092,-0.0093,-0.0071,-0.0072,-0.0071,-0.0075,-0.0077,-0.0137,-0.0144,-0.0059,-0.006,-0.006,0,-0.0947,-0.0832,-0.0754,-0.0677,-0.0635,-0.0585,-0.0527,-0.0488,-0.0396,-0.0376,-0.0371,-0.0264,-0.0203,-0.0144,-0.0131,-0.0097,-0.0122,-0.0082,-0.0079,-0.0081,-0.0082,-0.0142,-0.015,-0.0063,-0.0063,-0.0062,-0.0062,0,-0.0849,-0.0781,-0.073,-0.0631,-0.0584,-0.0519,-0.0465,-0.0435,-0.0416,-0.0382,-0.0331,-0.0266,-0.0201,-0.0175,-0.0138,-0.0107,-0.0136,-0.0102,-0.009,-0.0091,-0.0153,-0.016,-0.0068,-0.0067,-0.0066,-0.0065,0,0,-0.0863,-0.0696,-0.0684,-0.0648,-0.0557,-0.0509,-0.0473,-0.0416,-0.0408,-0.0352,-0.0336,-0.0245,-0.0228,-0.0185,-0.0143,-0.0124,-0.0169,-0.0115,-0.0114,-0.0204,-0.0227,-0.0269,-0.028,-0.015,-0.0149,-0.0149,-0.0289,0,-0.082,-0.0681,-0.0614,-0.0547,-0.0487,-0.0456,-0.0433,-0.0395,-0.0375,-0.0357,-0.0309,-0.0277,-0.0229,-0.0213,-0.0187,-0.0167,-0.0179,-0.0137,-0.0184,-0.0187,-0.0246,-0.0284,-0.022,-0.0339,-0.0294,-0.0295,-0.0296,0,-0.0745,-0.0671,-0.0573,-0.0508,-0.0482,-0.0458,-0.0435,-0.0404,-0.0379,-0.0362,-0.0334,-0.0315,-0.0277,-0.0246,-0.0235,-0.022,-0.0225,-0.022,-0.0224,-0.0231,-0.0237,-0.0314,-0.0351,-0.0107,-0.0305,-0.0305,-0.0304,0,-0.0775,-0.0651,-0.0581,-0.0553,-0.0473,-0.0458,-0.0437,-0.0408,-0.0399,-0.038,-0.0387,-0.035,-0.0351,-0.0331,-0.0321,-0.0284,-0.0349,-0.0294,-0.0351,-0.0357,-0.029,-0.029,-0.0111,-0.0302,-0.0302,-0.0301,-0.0301,0,-0.0742,-0.0699,-0.0595,-0.0567,-0.0545,-0.0481,-0.0475,-0.0451,-0.0433,-0.0443,-0.04,-0.0426,-0.0371,-0.0401,-0.0372,-0.0409,-0.0397,-0.037,-0.0387,-0.032,-0.0321,-0.0092,0.002,-0.0306,-0.0305,-0.0304,-0.0303,0,-0.0774,-0.0687,-0.0636,-0.0563,-0.0551,-0.0546,-0.0514,-0.0514,-0.0484,-0.0506,-0.0508,-0.0506,-0.0555,-0.0539,-0.0542,-0.0496,-0.0418,-0.0524,-0.0487,-0.0495,-0.0287,-0.0183,-0.0202,-0.0113,-0.0598,-0.06,-0.0601,0,-0.0762,-0.0724,-0.0667,-0.0662,-0.0633,-0.0612,-0.0609,-0.0559,-0.0563,-0.0568,-0.0596,-0.0649,-0.0706,-0.0751,-0.0703,-0.0713,-0.0525,-0.0619,-0.0499,-0.0278,-0.0173,-0.019,-0.0111,-0.047,-0.047,-0.047,-0.0471,0,-0.0783,-0.0765,-0.0737,-0.0721,-0.0715,-0.0706,-0.0692,-0.0702,-0.0662,-0.0667,-0.0722,-0.0773,-0.0846,-0.0846,-0.0846,-0.0789,-0.0448,-0.0625,-0.0369,-0.0041,-0.007,0.0009,-0.0418,-0.0472,-0.0472,-0.0472,-0.0472,-0.0472,-0.0822,-0.0823,-0.0785,-0.0776,-0.078,-0.0784,-0.0766,-0.0752,-0.075,-0.0668,-0.0776,-0.0665,-0.0779,-0.0789,-0.0748,-0.0463,-0.0529,-0.0279,-0.0182,-0.0229,-0.0089,-0.0563,-0.0639,-0.064,-0.064,-0.0641,-0.0641,0,-0.0828,-0.0823,-0.0832,-0.0813,-0.0823,-0.0808,-0.0803,-0.0744,-0.0718,-0.0552,-0.054,-0.0314,-0.0424,-0.0358,-0.024,-0.0011,0.0049,0.0178,0.0277,0.0334,-0.0038,0.0036,0.0074,0.0074,0.0073,0.0073,0.0073,0.0073,-0.0826,-0.0822,-0.0818,-0.0829,-0.0829,-0.0788,-0.0769,-0.0666,-0.0496,-0.0102,0.0284,0.0479,0.0545,0.03,0.05,0.0568,0.0816,0.0733,0.0842,0.0756,0.0726,0.0696,0.08,0.0997,0.0998,0.1201,0.1204,0.1207]}],[{"header":{"parameterUnit":"m.s-1","parameterCategory":2,"la1":30.2991,"la2":30.254,"lo1":-89.0895,"lo2":-89.0444,"dy":0.0017,"dx":0.0017,"nx":28,"ny":28,"refTime":"2023-08-03T09:00:00:Z","depth":"2","parameterNumber":2,"parameterNumberName":"U-component_of_CURRENTS"},"data":[0,0,0,0,0,0,0,0,0,0,0,0,0,0,0,0,0,0,0,0,0,0,0,0,0,0,0,0,0,0,0,0,0,0,0,0,0,0,0,0,0,0,0,0,0,0,0,0,0,0,0,0,0,0,0,0,0,0,-0.2097,-0.2099,0,-0.2136,-0.2136,-0.2136,-0.2098,-0.2098,-0.2097,-0.2096,-0.2195,-0.2198,-0.2201,0,0,0,0,0,0,0,0,0,0,0,0,0,-0.1837,-0.1842,-0.2097,-0.2099,-0.21,-0.2136,-0.2136,-0.2136,-0.2098,-0.2098,-0.2097,-0.2096,-0.2194,-0.2197,-0.2201,0,0,0,0,0,0,0,0,0,0,0,0,0,-0.1913,-0.1844,-0.2097,-0.2092,-0.2093,-0.2137,-0.2136,-0.2136,-0.2099,-0.2098,-0.2097,-0.2096,-0.2192,-0.2197,-0.2202,-0.2253,0,0,-0.2217,-0.2219,0,0,0,0,0,0,0,0,-0.1909,-0.1921,-0.2091,-0.2093,-0.2093,-0.2119,-0.2081,-0.2181,-0.2099,-0.2087,-0.2096,-0.2095,-0.2181,-0.2187,-0.2184,-0.2258,-0.2262,-0.2217,-0.222,-0.2222,-0.2224,0,0,0,0,0,0,0,-0.1904,-0.1919,-0.2104,-0.2093,-0.2094,-0.2036,-0.2046,-0.2098,-0.2134,-0.2088,-0.2088,-0.2106,-0.2181,-0.2179,-0.2186,-0.2264,-0.2217,-0.2222,-0.2225,-0.2227,-0.2382,-0.2384,0,0,0,0,0,0,-0.1927,-0.1915,-0.2103,-0.2106,-0.2006,-0.2043,-0.2053,-0.2105,-0.2132,-0.2138,-0.2107,-0.2104,-0.2171,-0.218,-0.219,-0.2258,-0.2222,-0.2227,-0.223,-0.2381,-0.2383,-0.2384,0,0,0,0,0,0,-0.1922,-0.1944,-0.2102,-0.2015,-0.2032,-0.205,-0.2107,-0.2106,-0.2132,-0.2148,-0.2152,-0.2138,-0.217,-0.2183,-0.2256,-0.2261,-0.2229,-0.2234,-0.238,-0.2382,-0.2383,-0.2391,0,0,0,0,0,0,-0.1914,-0.1943,-0.1989,-0.2019,-0.2039,-0.2146,-0.2109,-0.2108,-0.2148,-0.2145,-0.2176,-0.2181,-0.2171,-0.2249,-0.2261,-0.2267,-0.2238,-0.2378,-0.2381,-0.2383,-0.239,-0.2393,-0.2396,0,0,0,0,0,-0.1905,-0.1979,-0.1992,-0.2015,-0.2103,-0.2148,-0.2153,-0.2152,-0.2151,-0.217,-0.2192,-0.2182,-0.227,-0.2255,-0.2269,-0.2276,-0.2377,-0.238,-0.2383,-0.2388,-0.2392,-0.2396,0,0,0,0,0,0,-0.1893,-0.1984,-0.1998,-0.2098,-0.2129,-0.2146,-0.2173,-0.2181,-0.2211,-0.2218,-0.2221,-0.2229,-0.2286,-0.2297,-0.228,-0.2327,-0.2314,-0.232,-0.2313,-0.2318,-0.2321,-0.224,-0.2242,0,0,0,0,0,-0.1917,-0.1996,-0.205,-0.2129,-0.215,-0.2169,-0.2192,-0.2199,-0.223,-0.2241,-0.2267,-0.2289,-0.2305,-0.2327,-0.2352,-0.2404,-0.2344,-0.2411,-0.2414,-0.2417,-0.236,-0.2286,-0.2275,-0.2393,-0.2393,-0.2393,0,0,-0.194,-0.1997,-0.2045,-0.2131,-0.2153,-0.2165,-0.2178,-0.2231,-0.2241,-0.2254,-0.2297,-0.2321,-0.2326,-0.2358,-0.2383,-0.2371,-0.2362,-0.242,-0.2422,-0.2363,-0.2287,-0.2275,-0.2264,-0.2395,-0.2394,-0.2394,0,0,-0.1977,-0.2071,-0.2117,-0.2144,-0.2198,-0.2204,-0.223,-0.2273,-0.2296,-0.236,-0.2343,-0.2361,-0.2439,-0.2393,-0.2389,-0.2435,-0.2389,-0.2471,-0.2416,-0.2347,-0.2334,-0.2323,-0.2262,-0.2245,-0.2464,-0.2464,-0.2464,0,-0.2,-0.2055,-0.2134,-0.2155,-0.2173,-0.2221,-0.223,-0.2263,-0.2325,-0.2323,-0.2383,-0.2393,-0.2428,-0.2371,-0.2385,-0.2434,-0.2393,-0.24,-0.2344,-0.2332,-0.2319,-0.2259,-0.224,-0.2465,-0.2465,-0.2465,-0.2465,0,-0.2016,-0.207,-0.2101,-0.2137,-0.2171,-0.2203,-0.2248,-0.2276,-0.2328,-0.2334,-0.2353,-0.2392,-0.2371,-0.2402,-0.2416,-0.2339,-0.2341,-0.2362,-0.2321,-0.2306,-0.2247,-0.2226,-0.2466,-0.2466,-0.2466,-0.2465,0,0,-0.2053,-0.2101,-0.2122,-0.2092,-0.2164,-0.2171,-0.221,-0.2213,-0.2179,-0.2272,-0.2226,-0.2276,-0.2284,-0.2276,-0.2294,-0.2238,-0.216,-0.2267,-0.2263,-0.2181,-0.2006,-0.1926,-0.1896,-0.2177,-0.2173,-0.2169,-0.2009,0,-0.2033,-0.2044,-0.2097,-0.208,-0.2058,-0.211,-0.2116,-0.2131,-0.217,-0.2146,-0.2174,-0.2162,-0.2245,-0.2235,-0.2199,-0.2175,-0.2102,-0.2201,-0.2051,-0.2045,-0.1954,-0.1867,-0.1752,-0.159,-0.1989,-0.1985,-0.1983,0,-0.2014,-0.2008,-0.2003,-0.1975,-0.1978,-0.1986,-0.1956,-0.1967,-0.1954,-0.1992,-0.1984,-0.2015,-0.1973,-0.2052,-0.1962,-0.203,-0.1999,-0.1975,-0.1969,-0.1856,-0.1924,-0.1665,-0.1537,-0.1948,-0.195,-0.1953,-0.1955,0,-0.1923,-0.194,-0.192,-0.1921,-0.1907,-0.191,-0.1909,-0.1908,-0.1899,-0.1875,-0.1868,-0.1841,-0.1845,-0.18,-0.1829,-0.1882,-0.1708,-0.1779,-0.1653,-0.1649,-0.1491,-0.1478,-0.1638,-0.1638,-0.1639,-0.1639,-0.1639,0,-0.1831,-0.1813,-0.1869,-0.1838,-0.1781,-0.1817,-0.1754,-0.1766,-0.1757,-0.1719,-0.1778,-0.1747,-0.1782,-0.1735,-0.1739,-0.1632,-0.1644,-0.1577,-0.1571,-0.1499,-0.1489,-0.1756,-0.1772,-0.1633,-0.1634,-0.1636,-0.1637,0,-0.169,-0.1746,-0.17,-0.1717,-0.1734,-0.168,-0.1692,-0.1632,-0.1658,-0.1618,-0.1618,-0.1653,-0.1591,-0.159,-0.1504,-0.1507,-0.1413,-0.1361,-0.128,-0.1265,-0.1421,-0.144,-0.1175,-0.117,-0.1166,-0.1163,-0.116,0,-0.1625,-0.1586,-0.1627,-0.1602,-0.1613,-0.1566,-0.1551,-0.1588,-0.1564,-0.1562,-0.1547,-0.1487,-0.1431,-0.128,-0.122,-0.1115,-0.1244,-0.0975,-0.103,-0.1336,-0.1358,-0.1384,-0.1408,-0.0848,-0.0843,-0.0839,-0.0835,0,-0.1456,-0.15,-0.146,-0.1438,-0.1436,-0.1398,-0.1409,-0.1395,-0.1433,-0.142,-0.1384,-0.1319,-0.117,-0.1008,-0.0888,-0.0835,-0.099,-0.0882,-0.1163,-0.0996,-0.1017,-0.1044,-0.108,-0.0797,-0.0801,-0.0804,-0.0806,-0.0807,-0.1378,-0.1306,-0.13,-0.1246,-0.1251,-0.1256,-0.1207,-0.1237,-0.1215,-0.1201,-0.1214,-0.1133,-0.102,-0.0791,-0.0658,-0.0577,-0.0659,-0.0661,-0.0679,-0.0699,-0.0702,-0.0715,-0.044,-0.0442,-0.0443,-0.0444,-0.0446,0,-0.124,-0.1169,-0.1112,-0.1079,-0.1043,-0.1102,-0.1116,-0.1064,-0.1036,-0.1037,-0.0978,-0.0865,-0.0704,-0.0629,-0.0409,-0.03,-0.0338,-0.0302,-0.0378,-0.0412,-0.0443,-0.044,-0.0105,-0.0104,-0.0104,-0.0104,0,0,-0.1178,-0.1039,-0.0991,-0.0894,-0.0886,-0.0833,-0.0831,-0.0803,-0.0786,-0.0727,-0.0731,-0.0766,-0.0684,-0.0507,-0.0321,-0.0185,-0.032,-0.0156,-0.0419,-0.0546,-0.0579,-0.0618,-0.0645,0,0,0,0,0]},{"header":{"parameterUnit":"m.s-1","parameterCategory":2,"la1":30.2991,"la2":30.254,"lo1":-89.0895,"lo2":-89.0444,"dy":0.0017,"dx":0.0017,"nx":28,"ny":28,"refTime":"2023-08-03T09:00:00:Z","depth":"2","parameterNumber":3,"parameterNumberName":"V-component_of_CURRENTS"},"data":[0,0,0,0,0,0,0,0,0,0,0,0,0,0,0,0,0,0,0,0,0,0,0,0,0,0,0,0,0,0,0,0,0,0,0,0,0,0,0,0,0,0,0,0,0,0,0,0,0,0,0,0,0,0,0,0,0,0,-0.057,-0.0569,0,-0.0527,-0.0527,-0.0527,-0.0457,-0.0456,-0.0455,-0.0453,-0.0259,-0.0255,-0.0251,0,0,0,0,0,0,0,0,0,0,0,0,0,-0.0537,-0.0538,-0.057,-0.0569,-0.0569,-0.0528,-0.0527,-0.0527,-0.0458,-0.0456,-0.0454,-0.0453,-0.026,-0.0255,-0.0251,0,0,0,0,0,0,0,0,0,0,0,0,0,-0.053,-0.0539,-0.057,-0.0528,-0.0524,-0.0528,-0.0527,-0.0527,-0.0458,-0.0456,-0.0454,-0.0452,-0.0261,-0.0256,-0.025,-0.0257,0,0,-0.0232,-0.023,0,0,0,0,0,0,0,0,-0.0531,-0.0532,-0.0535,-0.0531,-0.0526,-0.0494,-0.0444,-0.0428,-0.0459,-0.0485,-0.0453,-0.0451,-0.0324,-0.0313,-0.0314,-0.0248,-0.0239,-0.0232,-0.0228,-0.0226,-0.0224,0,0,0,0,0,0,0,-0.0531,-0.0533,-0.0555,-0.0534,-0.0529,-0.0492,-0.049,-0.0441,-0.0415,-0.0482,-0.0477,-0.047,-0.032,-0.032,-0.0308,-0.0237,-0.0232,-0.0227,-0.0223,-0.0221,0.0086,0.009,0,0,0,0,0,0,-0.0539,-0.0534,-0.0556,-0.0553,-0.0521,-0.0495,-0.0492,-0.0508,-0.0419,-0.0404,-0.0472,-0.0467,-0.0331,-0.0315,-0.0301,-0.017,-0.0226,-0.0221,-0.0217,0.0081,0.0087,0.0092,0,0,0,0,0,0,-0.0539,-0.0543,-0.0558,-0.0539,-0.0539,-0.0498,-0.0516,-0.0508,-0.0482,-0.0412,-0.0394,-0.045,-0.0329,-0.0309,-0.0215,-0.0167,-0.0218,-0.0213,0.0076,0.0083,0.0089,0.0007,0,0,0,0,0,0,-0.0539,-0.0544,-0.0557,-0.0541,-0.054,-0.055,-0.0518,-0.0509,-0.0482,-0.0474,-0.0388,-0.037,-0.0325,-0.0224,-0.0209,-0.016,-0.0208,0.007,0.0079,0.0087,0.0003,0.001,0.0015,0,0,0,0,0,-0.0538,-0.0565,-0.0558,-0.056,-0.0561,-0.055,-0.0546,-0.051,-0.0483,-0.0477,-0.0395,-0.0371,-0.0155,-0.0218,-0.0201,-0.0149,0.0066,0.0076,0.0087,0.0001,0.0009,0.0015,0,0,0,0,0,0,-0.0557,-0.0561,-0.0552,-0.0579,-0.056,-0.0537,-0.0536,-0.0505,-0.0445,-0.0425,-0.0351,-0.0326,-0.0212,-0.0157,-0.0228,-0.0017,-0.0025,-0.0011,-0.0095,-0.0087,-0.0081,-0.0142,-0.0203,0,0,0,0,0,-0.0571,-0.0593,-0.0578,-0.0597,-0.0593,-0.0562,-0.0552,-0.0524,-0.0471,-0.0444,-0.0368,-0.0262,-0.0161,-0.0111,-0.0019,0.0058,0.006,0.0127,0.0133,0.0137,0.011,0.0104,0.0102,0.0127,0.0126,0.0126,0,0,-0.0588,-0.0588,-0.0602,-0.0602,-0.0591,-0.0592,-0.0551,-0.0536,-0.0508,-0.043,-0.0352,-0.025,-0.0131,-0.0025,0.0034,0.0024,0.0151,0.015,0.0151,0.0122,0.0114,0.011,0.0106,0.0134,0.0132,0.0131,0,0,-0.0628,-0.063,-0.0661,-0.0651,-0.063,-0.0607,-0.0598,-0.0552,-0.0502,-0.0417,-0.0332,-0.0219,-0.0065,0.0011,0.0076,0.0171,0.0182,0.025,0.0214,0.0208,0.0202,0.0197,0.024,0.0239,0.0248,0.0248,0.0248,0,-0.0645,-0.0679,-0.0663,-0.0681,-0.0666,-0.0613,-0.062,-0.0577,-0.0491,-0.0444,-0.0384,-0.0158,-0.0055,0.0047,0.0113,0.0172,0.0186,0.0154,0.0201,0.0196,0.0191,0.0237,0.0236,0.0246,0.0246,0.0246,0.0246,0,-0.0711,-0.0724,-0.0737,-0.0743,-0.0723,-0.072,-0.0659,-0.0611,-0.0521,-0.0461,-0.0318,-0.0183,-0.0055,0.0032,0.0107,0.0166,0.0195,0.0194,0.0143,0.0181,0.0232,0.0232,0.0242,0.0243,0.0244,0.0244,0,0,-0.0768,-0.0784,-0.0781,-0.0778,-0.0748,-0.0732,-0.069,-0.0629,-0.0595,-0.0465,-0.0403,-0.0195,-0.0125,-0.0044,0.0063,0.0087,0.0113,0.0135,0.0136,0.011,0.013,0.0203,0.0211,0.0097,0.0096,0.0095,0.0189,0,-0.0813,-0.0856,-0.0838,-0.084,-0.0849,-0.0784,-0.0748,-0.0679,-0.0587,-0.0514,-0.0373,-0.0264,-0.0154,-0.0078,-0.0041,0.0081,0.0106,0.009,0.0158,0.0161,0.016,0.021,0.0208,0.0294,0.019,0.019,0.019,0,-0.0873,-0.0885,-0.0912,-0.0874,-0.0869,-0.0858,-0.0784,-0.0744,-0.0651,-0.0572,-0.0479,-0.0373,-0.0261,-0.0193,-0.005,-0.0068,0.0026,0.0099,0.0104,0.0185,0.0233,0.0241,0.0299,0.0191,0.0191,0.0191,0.0191,0,-0.0911,-0.0916,-0.093,-0.0926,-0.0896,-0.0872,-0.0838,-0.0762,-0.0706,-0.063,-0.0572,-0.0465,-0.0362,-0.0283,-0.0071,-0.0075,0.0063,0.0065,0.0209,0.0217,0.0236,0.0247,0.0113,0.0113,0.0113,0.0112,0.0112,0,-0.0954,-0.0953,-0.0951,-0.0964,-0.0943,-0.0908,-0.0872,-0.0827,-0.0759,-0.0695,-0.0609,-0.0525,-0.0384,-0.0259,-0.0124,0.0072,0.0019,0.0204,0.0234,0.0224,0.0232,0.015,0.0153,0.0116,0.0115,0.0114,0.0114,0,-0.0969,-0.0989,-0.0992,-0.0976,-0.0971,-0.0945,-0.0887,-0.0857,-0.0803,-0.0725,-0.0697,-0.0558,-0.0396,-0.0243,-0.0074,0.0042,0.0185,0.0259,0.0273,0.0303,0.0355,0.0354,0.0402,0.0405,0.0408,0.041,0.0412,0,-0.0981,-0.1,-0.0999,-0.0998,-0.0985,-0.0955,-0.0935,-0.0879,-0.0841,-0.0718,-0.0675,-0.0518,-0.0354,-0.0083,0.0107,0.0315,0.0283,0.0419,0.0404,0.0354,0.0378,0.0374,0.0369,0.0425,0.0426,0.0428,0.0429,0,-0.0981,-0.0985,-0.0982,-0.0997,-0.0984,-0.0957,-0.0926,-0.0906,-0.0825,-0.0738,-0.06,-0.0473,-0.0196,0.0052,0.0308,0.041,0.0377,0.0458,0.0376,0.0355,0.0383,0.0405,0.0398,0.0442,0.0441,0.044,0.0439,0.0439,-0.0962,-0.0952,-0.0974,-0.0964,-0.0963,-0.0956,-0.0941,-0.0895,-0.0816,-0.0674,-0.0545,-0.0273,-0.0081,0.0352,0.0444,0.0531,0.0549,0.0565,0.0556,0.0547,0.0536,0.0567,0.0661,0.0661,0.0661,0.0661,0.0661,0,-0.094,-0.0941,-0.0942,-0.0949,-0.0954,-0.0955,-0.093,-0.0898,-0.0816,-0.0583,-0.0415,-0.0073,0.0214,0.0393,0.0583,0.0667,0.0601,0.0627,0.0537,0.0527,0.0518,0.0499,0.0618,0.0617,0.0617,0.0616,0,0,-0.0929,-0.0928,-0.0928,-0.0941,-0.0954,-0.096,-0.0953,-0.0887,-0.0727,-0.0486,-0.0208,0.0093,0.0362,0.0475,0.0531,0.0591,0.0511,0.0561,0.06,0.0475,0.0463,0.0503,0.0468,0,0,0,0,0]}],[{"header":{"parameterUnit":"m.s-1","parameterCategory":2,"la1":30.2991,"la2":30.254,"lo1":-89.0895,"lo2":-89.0444,"dy":0.0017,"dx":0.0017,"nx":28,"ny":28,"refTime":"2023-08-03T09:00:00:Z","depth":"4","parameterNumber":2,"parameterNumberName":"U-component_of_CURRENTS"},"data":[0,0,0,0,0,0,0,0,0,0,0,0,0,0,0,0,0,0,0,0,0,0,0,0,0,0,0,0,0,0,0,0,0,0,0,0,0,0,0,0,0,0,0,0,0,0,0,0,0,0,0,0,0,0,0,0,0,0,-0.0985,-0.0985,0,-0.1037,-0.1037,-0.1038,-0.1085,-0.1085,-0.1086,-0.1086,-0.1151,-0.1152,-0.1154,0,0,0,0,0,0,0,0,0,0,0,0,0,-0.0947,-0.0947,-0.0985,-0.0985,-0.0986,-0.1037,-0.1037,-0.1038,-0.1084,-0.1085,-0.1086,-0.1086,-0.1151,-0.1152,-0.1154,0,0,0,0,0,0,0,0,0,0,0,0,0,-0.0978,-0.0947,-0.0984,-0.1015,-0.1018,-0.1037,-0.1037,-0.1038,-0.1084,-0.1085,-0.1086,-0.1087,-0.115,-0.1152,-0.1154,-0.115,0,0,-0.116,-0.116,0,0,0,0,0,0,0,0,-0.0976,-0.0979,-0.101,-0.1013,-0.1017,-0.1055,-0.1048,-0.1076,-0.1084,-0.1059,-0.1086,-0.1087,-0.1119,-0.1124,-0.1132,-0.1153,-0.1155,-0.116,-0.1161,-0.1162,-0.1162,0,0,0,0,0,0,0,-0.0974,-0.0977,-0.1006,-0.101,-0.1015,-0.1034,-0.1039,-0.1054,-0.1085,-0.1062,-0.1065,-0.107,-0.1122,-0.113,-0.1134,-0.1156,-0.116,-0.1161,-0.1163,-0.1163,-0.1255,-0.1256,0,0,0,0,0,0,-0.0965,-0.0975,-0.1004,-0.1007,-0.0998,-0.1033,-0.1039,-0.1042,-0.1084,-0.1092,-0.107,-0.1072,-0.1127,-0.1132,-0.1136,-0.1189,-0.1162,-0.1163,-0.1164,-0.1254,-0.1256,-0.1257,0,0,0,0,0,0,-0.0964,-0.0967,-0.1002,-0.0992,-0.0998,-0.1033,-0.1036,-0.1043,-0.1068,-0.109,-0.1098,-0.109,-0.1127,-0.1134,-0.1175,-0.119,-0.1164,-0.1166,-0.1252,-0.1254,-0.1256,-0.1258,0,0,0,0,0,0,-0.0962,-0.0966,-0.0973,-0.0992,-0.0998,-0.1021,-0.1035,-0.1043,-0.1069,-0.1073,-0.111,-0.1116,-0.1128,-0.1173,-0.1177,-0.1192,-0.1167,-0.1251,-0.1253,-0.1256,-0.1257,-0.126,-0.1263,0,0,0,0,0,-0.0961,-0.0958,-0.0973,-0.0977,-0.1004,-0.1021,-0.1027,-0.1054,-0.1069,-0.1081,-0.1116,-0.1116,-0.1192,-0.1175,-0.118,-0.1196,-0.1249,-0.1253,-0.1255,-0.1255,-0.126,-0.1263,0,0,0,0,0,0,-0.0949,-0.0963,-0.098,-0.0984,-0.1008,-0.1029,-0.1041,-0.1061,-0.1096,-0.1105,-0.113,-0.1139,-0.1179,-0.1191,-0.1173,-0.1232,-0.1221,-0.1225,-0.122,-0.1224,-0.1227,-0.122,-0.1169,0,0,0,0,0,-0.0948,-0.0948,-0.0973,-0.0978,-0.099,-0.102,-0.1033,-0.1053,-0.1081,-0.1098,-0.1129,-0.1163,-0.1192,-0.1212,-0.1236,-0.1266,-0.1261,-0.1283,-0.1286,-0.1288,-0.1289,-0.1313,-0.1318,-0.1267,-0.1267,-0.1267,0,0,-0.0944,-0.0953,-0.0954,-0.0976,-0.0996,-0.102,-0.103,-0.1051,-0.1079,-0.1099,-0.115,-0.1173,-0.1203,-0.1241,-0.126,-0.1255,-0.1294,-0.1292,-0.1294,-0.1293,-0.1317,-0.1322,-0.1326,-0.1269,-0.1268,-0.1268,0,0,-0.0934,-0.0946,-0.0947,-0.0969,-0.0998,-0.102,-0.1029,-0.1065,-0.1091,-0.1137,-0.116,-0.1194,-0.1246,-0.1266,-0.1282,-0.1319,-0.1309,-0.1334,-0.1345,-0.1369,-0.1373,-0.1377,-0.1342,-0.1343,-0.1337,-0.1337,-0.1337,0,-0.0934,-0.094,-0.0953,-0.0968,-0.0988,-0.1023,-0.1043,-0.1073,-0.1122,-0.1148,-0.1158,-0.1242,-0.1255,-0.1302,-0.1313,-0.1323,-0.1322,-0.1323,-0.1371,-0.1375,-0.1379,-0.1343,-0.1344,-0.1338,-0.1337,-0.1337,-0.1337,0,-0.0922,-0.0945,-0.0948,-0.0981,-0.1005,-0.1023,-0.1067,-0.1106,-0.1144,-0.1175,-0.1236,-0.1264,-0.1313,-0.1323,-0.1327,-0.1365,-0.1348,-0.1368,-0.1354,-0.1383,-0.1344,-0.1345,-0.1338,-0.1338,-0.1338,-0.1338,0,0,-0.0876,-0.093,-0.0934,-0.0968,-0.1013,-0.1035,-0.1084,-0.1138,-0.1181,-0.1231,-0.1282,-0.1323,-0.1341,-0.1361,-0.1374,-0.139,-0.139,-0.139,-0.1391,-0.1342,-0.1407,-0.128,-0.1267,-0.1428,-0.1429,-0.143,-0.1357,0,-0.0869,-0.0901,-0.0929,-0.0982,-0.1008,-0.1063,-0.1109,-0.1164,-0.1214,-0.1274,-0.1308,-0.1356,-0.1356,-0.1379,-0.1398,-0.1404,-0.1398,-0.1405,-0.1399,-0.1397,-0.127,-0.1267,-0.1433,-0.1357,-0.1357,-0.1357,-0.1357,0,-0.0844,-0.0874,-0.0913,-0.1,-0.1017,-0.1057,-0.1143,-0.1189,-0.1269,-0.1307,-0.1361,-0.1391,-0.1422,-0.1419,-0.1433,-0.1444,-0.142,-0.1413,-0.1411,-0.1294,-0.1272,-0.1333,-0.1357,-0.1357,-0.1357,-0.1357,-0.1357,0,-0.0797,-0.0868,-0.0902,-0.0926,-0.102,-0.1061,-0.1116,-0.1198,-0.1242,-0.1325,-0.1359,-0.1415,-0.1433,-0.1447,-0.1419,-0.1439,-0.1414,-0.1441,-0.1294,-0.1283,-0.1419,-0.1416,-0.1437,-0.1437,-0.1437,-0.1437,-0.1437,0,-0.0769,-0.0808,-0.0891,-0.0911,-0.097,-0.1042,-0.1112,-0.1176,-0.1258,-0.1301,-0.1368,-0.139,-0.1446,-0.1439,-0.1423,-0.1337,-0.1414,-0.1279,-0.1262,-0.1417,-0.1415,-0.1416,-0.1415,-0.1434,-0.1435,-0.1435,-0.1436,0,-0.0724,-0.0772,-0.0826,-0.0919,-0.0949,-0.0994,-0.1101,-0.1154,-0.123,-0.1285,-0.1308,-0.137,-0.1344,-0.1355,-0.1349,-0.1309,-0.1264,-0.1209,-0.1325,-0.1318,-0.1112,-0.1113,-0.1048,-0.1043,-0.1038,-0.1035,-0.1032,0,-0.0705,-0.0724,-0.0811,-0.0841,-0.089,-0.0965,-0.1017,-0.1122,-0.1167,-0.1253,-0.1264,-0.1268,-0.1287,-0.1153,-0.119,-0.1123,-0.1112,-0.1082,-0.1138,-0.1085,-0.1076,-0.1082,-0.1088,-0.1025,-0.1024,-0.1023,-0.1022,0,-0.0671,-0.0703,-0.0741,-0.0792,-0.085,-0.0916,-0.0992,-0.1012,-0.112,-0.1196,-0.1167,-0.1142,-0.1091,-0.1062,-0.0997,-0.0969,-0.1114,-0.1039,-0.1048,-0.1101,-0.1058,-0.1054,-0.1064,-0.1007,-0.1009,-0.1011,-0.1012,0,-0.064,-0.0653,-0.0691,-0.0739,-0.0805,-0.0844,-0.0899,-0.0936,-0.098,-0.107,-0.1048,-0.1043,-0.1071,-0.0977,-0.0934,-0.0875,-0.0873,-0.087,-0.0889,-0.0905,-0.0894,-0.0821,-0.0667,0,0,0,0,0,-0.0599,-0.0602,-0.0638,-0.0681,-0.0748,-0.078,-0.0874,-0.0931,-0.1019,-0.0961,-0.1,-0.0942,-0.0866,-0.0867,-0.0771,-0.0876,-0.0885,-0.0765,-0.0895,-0.0926,-0.0943,-0.0944,0,0,0,0,0,0,-0.0565,-0.0591,-0.0605,-0.0622,-0.0639,-0.0703,-0.0755,-0.0821,-0.0793,-0.087,-0.0817,-0.0871,-0.0796,-0.0875,-0.0739,-0.0739,-0.0801,-0.0764,-0.0761,-0.0917,-0.0932,-0.0946,-0.0953,0,0,0,0,0]},{"header":{"parameterUnit":"m.s-1","parameterCategory":2,"la1":30.2991,"la2":30.254,"lo1":-89.0895,"lo2":-89.0444,"dy":0.0017,"dx":0.0017,"nx":28,"ny":28,"refTime":"2023-08-03T09:00:00:Z","depth":"4","parameterNumber":3,"parameterNumberName":"V-component_of_CURRENTS"},"data":[0,0,0,0,0,0,0,0,0,0,0,0,0,0,0,0,0,0,0,0,0,0,0,0,0,0,0,0,0,0,0,0,0,0,0,0,0,0,0,0,0,0,0,0,0,0,0,0,0,0,0,0,0,0,0,0,0,0,-0.0499,-0.0499,0,-0.051,-0.051,-0.051,-0.05,-0.05,-0.05,-0.05,-0.0482,-0.0481,-0.0481,0,0,0,0,0,0,0,0,0,0,0,0,0,-0.0413,-0.0415,-0.0499,-0.0499,-0.05,-0.051,-0.051,-0.051,-0.0501,-0.05,-0.05,-0.05,-0.0482,-0.0481,-0.0481,0,0,0,0,0,0,0,0,0,0,0,0,0,-0.0439,-0.0415,-0.0499,-0.0497,-0.0497,-0.051,-0.051,-0.051,-0.0501,-0.05,-0.05,-0.0499,-0.0482,-0.0482,-0.0481,-0.0487,0,0,-0.048,-0.048,0,0,0,0,0,0,0,0,-0.0437,-0.0442,-0.0497,-0.0497,-0.0497,-0.0505,-0.0473,-0.0502,-0.0501,-0.0498,-0.05,-0.0499,-0.0488,-0.0487,-0.0489,-0.0487,-0.0486,-0.048,-0.048,-0.048,-0.048,0,0,0,0,0,0,0,-0.0435,-0.0441,-0.0502,-0.0498,-0.0498,-0.0476,-0.048,-0.0478,-0.0493,-0.0498,-0.0498,-0.0501,-0.0487,-0.0489,-0.0488,-0.0486,-0.048,-0.048,-0.048,-0.048,-0.0479,-0.0479,0,0,0,0,0,0,-0.0441,-0.044,-0.0502,-0.0503,-0.0467,-0.0479,-0.0482,-0.0502,-0.0494,-0.0493,-0.0502,-0.0501,-0.049,-0.0488,-0.0487,-0.0495,-0.048,-0.0479,-0.0479,-0.0479,-0.0479,-0.0479,0,0,0,0,0,0,-0.0439,-0.0447,-0.0501,-0.0471,-0.0477,-0.0481,-0.0502,-0.0502,-0.0511,-0.0497,-0.0495,-0.0512,-0.0489,-0.0488,-0.0494,-0.0494,-0.0479,-0.0479,-0.0478,-0.0479,-0.0479,-0.0509,0,0,0,0,0,0,-0.0437,-0.0447,-0.0465,-0.0472,-0.0479,-0.0521,-0.0503,-0.0503,-0.0514,-0.0513,-0.0506,-0.0503,-0.0489,-0.0495,-0.0494,-0.0493,-0.0479,-0.0478,-0.0479,-0.0479,-0.0508,-0.0511,-0.0513,0,0,0,0,0,-0.0434,-0.0468,-0.0467,-0.0474,-0.0504,-0.0522,-0.0524,-0.0523,-0.0515,-0.0528,-0.0519,-0.0504,-0.0496,-0.0496,-0.0494,-0.0493,-0.0478,-0.0478,-0.0479,-0.0507,-0.051,-0.0513,0,0,0,0,0,0,-0.0446,-0.0471,-0.0469,-0.0511,-0.0518,-0.0521,-0.0538,-0.0531,-0.0534,-0.0535,-0.0515,-0.0512,-0.0516,-0.0503,-0.0503,-0.0493,-0.0481,-0.0481,-0.0503,-0.0506,-0.0508,-0.0495,-0.0479,0,0,0,0,0,-0.0456,-0.049,-0.0498,-0.0533,-0.0538,-0.0537,-0.0545,-0.0544,-0.0546,-0.0548,-0.0541,-0.0529,-0.0516,-0.0511,-0.0506,-0.0506,-0.0459,-0.0501,-0.0503,-0.0505,-0.0493,-0.0426,-0.042,-0.048,-0.048,-0.048,0,0,-0.0472,-0.049,-0.051,-0.0538,-0.0544,-0.0552,-0.0542,-0.0563,-0.0566,-0.0545,-0.0556,-0.0545,-0.052,-0.0518,-0.0517,-0.0507,-0.0464,-0.0506,-0.0508,-0.0494,-0.0425,-0.0419,-0.0414,-0.0481,-0.0481,-0.0481,0,0,-0.0511,-0.0536,-0.0565,-0.0573,-0.0587,-0.0581,-0.0589,-0.0596,-0.0596,-0.0606,-0.0583,-0.0568,-0.0568,-0.0537,-0.0521,-0.0532,-0.0483,-0.0536,-0.0532,-0.0467,-0.0461,-0.0455,-0.0387,-0.0375,-0.0532,-0.0532,-0.0532,0,-0.0525,-0.056,-0.0576,-0.0595,-0.0599,-0.0594,-0.0606,-0.0608,-0.0615,-0.061,-0.0616,-0.0583,-0.0568,-0.0531,-0.0533,-0.0535,-0.0491,-0.0525,-0.0469,-0.0462,-0.0455,-0.0387,-0.0373,-0.0533,-0.0533,-0.0533,-0.0533,0,-0.0572,-0.0594,-0.0613,-0.063,-0.0638,-0.0655,-0.0649,-0.0658,-0.0656,-0.0645,-0.063,-0.0606,-0.0575,-0.0571,-0.0557,-0.0503,-0.0485,-0.0484,-0.0459,-0.0451,-0.0379,-0.0364,-0.0535,-0.0535,-0.0534,-0.0534,0,0,-0.0611,-0.0638,-0.0645,-0.0645,-0.0655,-0.0665,-0.0672,-0.0666,-0.066,-0.0658,-0.0635,-0.061,-0.0588,-0.0566,-0.054,-0.0485,-0.0405,-0.0467,-0.0463,-0.0395,-0.0253,-0.024,-0.0222,-0.0395,-0.0392,-0.039,-0.0221,0,-0.0633,-0.0666,-0.0676,-0.0692,-0.0696,-0.0693,-0.0699,-0.0694,-0.0683,-0.0663,-0.062,-0.0595,-0.0587,-0.0567,-0.0511,-0.0435,-0.0366,-0.045,-0.0275,-0.0269,-0.0255,-0.0205,-0.0383,-0.021,-0.0206,-0.0204,-0.0202,0,-0.0665,-0.0676,-0.07,-0.0704,-0.0709,-0.0721,-0.0714,-0.0718,-0.0686,-0.0676,-0.0633,-0.06,-0.0519,-0.0517,-0.0361,-0.0416,-0.0332,-0.027,-0.0262,-0.0226,-0.0228,-0.022,-0.0174,-0.0176,-0.0178,-0.018,-0.0182,0,-0.0666,-0.069,-0.0707,-0.0712,-0.072,-0.0731,-0.0735,-0.0722,-0.0717,-0.0671,-0.0648,-0.0565,-0.0508,-0.0402,-0.0287,-0.0314,-0.0107,-0.0127,-0.0029,-0.0027,-0.0077,-0.0085,0.0003,0.0003,0.0003,0.0002,0.0002,0,-0.0672,-0.0685,-0.0712,-0.0717,-0.0735,-0.074,-0.075,-0.0745,-0.0719,-0.0688,-0.0647,-0.0584,-0.0476,-0.0357,-0.0259,-0.009,-0.0077,-0.0003,0.0026,-0.0095,-0.0107,-0.0065,-0.0076,0.0009,0.0007,0.0006,0.0005,0,-0.0664,-0.0686,-0.0703,-0.0723,-0.0736,-0.0749,-0.0766,-0.0765,-0.0741,-0.0691,-0.0671,-0.0572,-0.0414,-0.0298,-0.0107,-0.0045,0.0104,0.0162,0.0041,0.0056,0.0137,0.0123,0.0298,0.03,0.0302,0.0303,0.0304,0,-0.0661,-0.067,-0.0711,-0.0731,-0.0745,-0.0767,-0.0783,-0.0777,-0.0764,-0.0667,-0.0631,-0.0483,-0.04,-0.0102,-0.0009,0.0191,0.0204,0.0273,0.0192,0.0161,0.0172,0.0155,0.0139,0.0307,0.0308,0.0308,0.0309,0,-0.064,-0.067,-0.0686,-0.0731,-0.076,-0.078,-0.0792,-0.0778,-0.0742,-0.0715,-0.0541,-0.0399,-0.0217,-0.0052,0.0098,0.023,0.0217,0.0292,0.0288,0.0212,0.0174,0.0179,0.0161,0.0315,0.0314,0.0313,0.0313,0,-0.0636,-0.0649,-0.0691,-0.0725,-0.0767,-0.0782,-0.0785,-0.0732,-0.0701,-0.0587,-0.0516,-0.0329,-0.0223,-0.0026,0.0115,0.0238,0.0254,0.0269,0.0267,0.0261,0.0174,0.0115,0.029,0,0,0,0,0,-0.0625,-0.0648,-0.0681,-0.0724,-0.0766,-0.0792,-0.079,-0.0783,-0.0734,-0.0594,-0.0549,-0.0365,-0.0122,-0.0027,0.0108,0.0096,0.0228,0.0251,0.0232,0.0348,0.0341,0.0242,0,0,0,0,0,0,-0.0624,-0.066,-0.0675,-0.0719,-0.0753,-0.0791,-0.0792,-0.0756,-0.067,-0.0591,-0.0452,-0.0354,-0.0127,-0.0192,0.0106,0.014,0.0142,0.0365,0.0367,0.0352,0.0346,0.034,0.0236,0,0,0,0,0]}]]